KC0AFB Weather Reports


time (UTC)temp
F
wind
direction
speed
knots
gust
knots
rain 1hr
in
rain 24hr
in
rain mn
in
humidity
%
barometer
mb
20260901005702 75 226 1.7 1.7 0.00 0.00 0.00 46 1012.9
20260901005158 76 242 1.7 1.7 0.00 0.00 0.00 45 1012.7
20260901004657 76 258 3.5 4.3 0.00 0.00 0.00 44 1012.6
20260901004151 77 221 5.2 6.1 0.00 0.00 0.00 44 1012.4
20260901003646 77 220 6.1 7.8 0.00 0.00 0.00 43 1012.5
20260901003145 77 230 2.6 4.3 0.00 0.00 0.00 43 1012.6
20260901002640 78 246 4.3 6.1 0.00 0.00 0.00 42 1012.6
20260901002134 78 190 4.3 6.1 0.00 0.00 0.00 42 1012.4
20260901001630 78 246 5.2 7.8 0.00 0.00 0.00 42 1012.4
20260901001125 79 233 7.8 11.3 0.00 0.00 0.00 41 1012.2
20260901000620 79 253 4.3 5.2 0.00 0.00 0.00 42 1012.3
20260901000115 79 232 6.1 7.8 0.00 0.00 0.00 41 1012.3
20260831235609 79 285 5.2 6.1 0.00 0.00 0.00 40 1012.4
20260831235104 79 290 7.8 9.6 0.00 0.00 0.00 40 1012.3
20260831234604 80 264 7.0 8.7 0.00 0.00 0.00 40 1012.4
20260831234100 80 221 3.5 5.2 0.00 0.00 0.00 41 1012.2
20260831233555 80 220 6.1 7.0 0.00 0.00 0.00 40 1012.4
20260831233050 80 187 5.2 7.0 0.00 0.00 0.00 40 1012.5
20260831232545 80 285 5.2 7.0 0.00 0.00 0.00 39 1012.4
20260831232041 80 221 4.3 7.8 0.00 0.00 0.00 40 1012.2
20260831231537 80 269 6.1 7.8 0.00 0.00 0.00 39 1012.2
20260831231033 81 258 8.7 11.3 0.00 0.00 0.00 39 1012.2
20260831230528 80 236 13.0 18.2 0.00 0.00 0.00 38 1012.3
20260831230023 80 242 7.8 9.6 0.00 0.00 0.00 38 1012.0
20260831225520 81 224 5.2 5.2 0.00 0.00 0.00 39 1012.1
20260831225018 81 262 8.7 13.0 0.00 0.00 0.00 38 1011.9
20260831224514 81 227 10.4 13.0 0.00 0.00 0.00 37 1012.1
20260831224009 81 223 9.6 13.9 0.00 0.00 0.00 37 1012.0
20260831223504 81 211 7.8 11.3 0.00 0.00 0.00 38 1012.0
20260831223000 81 234 7.8 9.6 0.00 0.00 0.00 37 1011.8
20260831222456 81 259 6.1 7.8 0.00 0.00 0.00 37 1011.8
20260831221955 81 251 4.3 6.1 0.00 0.00 0.00 37 1012.0
20260831221451 81 220 7.8 11.3 0.00 0.00 0.00 37 1012.1
20260831220946 81 243 11.3 13.9 0.00 0.00 0.00 36 1011.9
20260831220442 81 249 7.8 11.3 0.00 0.00 0.00 37 1012.0
20260831215936 81 277 13.0 17.4 0.00 0.00 0.00 36 1012.1
20260831215432 81 218 8.7 11.3 0.00 0.00 0.00 36 1012.0
20260831214929 81 198 8.7 11.3 0.00 0.00 0.00 36 1011.9
20260831214426 81 235 12.2 15.6 0.00 0.00 0.00 35 1011.9
20260831213921 81 242 10.4 13.0 0.00 0.00 0.00 36 1011.9
20260831213418 81 219 8.7 9.6 0.00 0.00 0.00 36 1011.9
20260831212917 81 249 12.2 13.9 0.00 0.00 0.00 35 1012.1
20260831212414 81 210 12.2 14.8 0.00 0.00 0.00 35 1012.1
20260831211913 81 240 9.6 13.0 0.00 0.00 0.00 35 1011.9
20260831211408 81 242 11.3 13.9 0.00 0.00 0.00 35 1012.0
20260831210902 80 225 9.6 12.2 0.00 0.00 0.00 35 1012.3
20260831210358 80 282 12.2 15.6 0.00 0.00 0.00 35 1012.1
20260831205853 81 234 8.7 12.2 0.00 0.00 0.00 35 1012.1
20260831205349 80 228 11.3 14.8 0.00 0.00 0.00 36 1012.3
20260831204844 80 284 10.4 13.9 0.00 0.00 0.00 36 1012.4
20260831204343 80 260 13.0 17.4 0.00 0.00 0.00 36 1012.1
20260831203842 81 237 9.6 13.0 0.00 0.00 0.00 36 1012.3
20260831203337 80 259 11.3 12.2 0.00 0.00 0.00 35 1012.2
20260831202835 80 248 13.9 15.6 0.00 0.00 0.00 35 1012.3
20260831202330 80 261 7.0 8.7 0.00 0.00 0.00 37 1012.7
20260831201824 80 252 15.6 19.1 0.00 0.00 0.00 35 1012.6
20260831201323 80 222 8.7 11.3 0.00 0.00 0.00 37 1012.5
20260831200819 79 256 9.6 11.3 0.00 0.00 0.00 37 1012.3
20260831200314 80 215 7.0 7.8 0.00 0.00 0.00 38 1012.4
20260831195809 80 218 8.7 12.2 0.00 0.00 0.00 38 1012.3
20260831195306 79 257 8.7 11.3 0.00 0.00 0.00 38 1012.5
20260831194754 78 270 10.4 12.2 0.00 0.00 0.00 38 1012.4
20260831194249 78 256 12.2 14.8 0.00 0.00 0.00 38 1012.4
20260831193743 78 219 14.8 23.5 0.00 0.00 0.00 39 1012.4
20260831193239 79 258 8.7 9.6 0.00 0.00 0.00 38 1012.5
20260831192733 79 218 12.2 14.8 0.00 0.00 0.00 39 1012.6
20260831192229 78 239 10.4 13.0 0.00 0.00 0.00 39 1012.7
20260831191725 77 231 10.4 13.0 0.00 0.00 0.00 40 1012.6
20260831191221 77 237 12.2 14.8 0.00 0.00 0.00 38 1012.9
20260831190716 77 231 13.0 17.4 0.00 0.00 0.00 40 1012.7
20260831190215 77 246 13.0 17.4 0.00 0.00 0.00 40 1012.6
20260831185710 78 239 13.9 17.4 0.00 0.00 0.00 40 1012.9
20260831185206 77 239 13.0 17.4 0.00 0.00 0.00 40 1013.2
20260831184705 77 224 13.0 14.8 0.00 0.00 0.00 40 1013.0
20260831184201 77 252 10.4 13.0 0.00 0.00 0.00 42 1013.2
20260831183700 77 214 12.2 13.0 0.00 0.00 0.00 43 1013.2
20260831183200 77 242 12.2 17.4 0.00 0.00 0.00 42 1013.2
20260831182659 76 206 10.4 12.2 0.00 0.00 0.00 44 1013.1
20260831182155 75 223 8.7 9.6 0.00 0.00 0.00 44 1013.3
20260831181650 76 228 10.4 13.0 0.00 0.00 0.00 44 1013.2
20260831181149 76 232 12.2 15.6 0.00 0.00 0.00 44 1013.4
20260831180644 75 247 8.7 11.3 0.00 0.00 0.00 47 1013.3
20260831180139 75 222 9.6 13.9 0.00 0.00 0.00 45 1013.4
20260831175634 75 212 10.4 13.9 0.00 0.00 0.00 46 1013.6
20260831175131 75 246 11.3 13.9 0.00 0.00 0.00 45 1013.6
20260831174625 75 231 13.0 17.4 0.00 0.00 0.00 45 1013.4
20260831174120 75 218 9.6 11.3 0.00 0.00 0.00 47 1013.6
20260831173618 75 233 9.6 12.2 0.00 0.00 0.00 47 1013.6
20260831173114 74 232 9.6 19.1 0.00 0.00 0.00 48 1013.5
20260831172609 74 207 13.0 14.8 0.00 0.00 0.00 47 1013.6
20260831172103 74 216 11.3 13.9 0.00 0.00 0.00 48 1013.5
20260831171558 74 249 7.8 12.2 0.00 0.00 0.00 48 1013.6
20260831171056 73 223 10.4 13.0 0.00 0.00 0.00 50 1013.6
20260831170551 73 244 7.8 9.6 0.00 0.00 0.00 50 1013.7
20260831170049 73 266 7.0 7.8 0.00 0.00 0.00 51 1013.7
20260831165549 73 205 10.4 13.9 0.00 0.00 0.00 51 1013.7
20260831165046 73 174 7.0 8.7 0.00 0.00 0.00 52 1013.8
20260831164542 72 249 9.6 13.0 0.00 0.00 0.00 51 1013.8
20260831164037 72 218 7.8 11.3 0.00 0.00 0.00 55 1013.8
20260831163531 72 262 7.8 9.6 0.00 0.00 0.00 55 1013.8
20260831163028 71 252 10.4 13.0 0.00 0.00 0.00 55 1013.6
20260831162526 71 235 10.4 11.3 0.00 0.00 0.00 59 1013.8
20260831162024 71 236 11.3 13.0 0.00 0.00 0.00 60 1013.8
20260831161521 71 246 6.1 7.0 0.00 0.00 0.00 62 1013.7
20260831161017 70 252 8.7 11.3 0.00 0.00 0.00 61 1013.7
20260831160516 70 278 9.6 11.3 0.00 0.00 0.00 62 1013.7
20260831160012 70 226 8.7 11.3 0.00 0.00 0.00 62 1013.9
20260831155506 69 217 5.2 7.0 0.00 0.00 0.00 63 1013.9
20260831155001 69 239 5.2 8.7 0.00 0.00 0.00 64 1014.0
20260831154458 69 235 11.3 15.6 0.00 0.00 0.00 62 1013.9
20260831153956 69 223 9.6 11.3 0.00 0.00 0.00 63 1014.0
20260831153452 68 195 4.3 5.2 0.00 0.00 0.00 68 1014.0
20260831152949 68 229 5.2 7.0 0.00 0.00 0.00 68 1013.9
20260831152444 67 228 7.8 8.7 0.00 0.00 0.00 67 1014.0
20260831151939 67 261 5.2 7.0 0.00 0.00 0.00 68 1014.0
20260831151438 67 214 7.8 11.3 0.00 0.00 0.00 67 1013.9
20260831150933 66 233 9.6 11.3 0.00 0.00 0.00 68 1013.8
20260831150428 66 261 6.1 7.0 0.00 0.00 0.00 70 1013.9
20260831145927 66 226 3.5 4.3 0.00 0.00 0.00 74 1014.0
20260831145424 65 196 7.0 7.8 0.00 0.00 0.00 72 1013.9
20260831144919 65 252 7.0 8.7 0.00 0.00 0.00 74 1013.9
20260831144410 64 188 5.2 6.1 0.00 0.00 0.00 75 1013.8
20260831143910 64 240 5.2 7.8 0.00 0.00 0.00 75 1013.7
20260831143404 64 246 6.1 7.0 0.00 0.00 0.00 75 1013.8
20260831142854 63 209 4.3 6.1 0.00 0.00 0.00 75 1013.6
20260831142349 62 201 8.7 11.3 0.00 0.00 0.00 77 1013.6
20260831141844 62 207 7.0 7.8 0.00 0.00 0.00 78 1013.7
20260831141339 61 210 3.5 4.3 0.00 0.00 0.00 80 1013.7
20260831140833 61 208 6.1 7.8 0.00 0.00 0.00 80 1013.6
20260831140328 60 178 5.2 7.0 0.00 0.00 0.00 80 1013.8
20260831135827 60 205 6.1 7.0 0.00 0.00 0.00 81 1013.6
20260831135322 60 214 6.1 7.8 0.00 0.00 0.00 81 1013.5
20260831134817 59 197 5.2 6.1 0.00 0.00 0.00 82 1013.5
20260831134314 59 213 5.2 6.1 0.00 0.00 0.00 82 1013.5
20260831133813 58 201 7.0 7.8 0.00 0.00 0.00 83 1013.5
20260831133312 58 215 6.1 7.8 0.00 0.00 0.00 84 1013.5
20260831132808 58 200 5.2 7.8 0.00 0.00 0.00 83 1013.5
20260831132306 57 184 6.1 7.0 0.00 0.00 0.00 84 1013.2
20260831131757 57 195 4.3 6.1 0.00 0.00 0.00 85 1013.6
20260831131253 57 198 3.5 4.3 0.00 0.00 0.00 85 1013.6
20260831130748 56 177 5.2 6.1 0.00 0.00 0.00 86 1013.2
20260831130244 56 194 4.3 5.2 0.00 0.00 0.00 86 1013.5
20260831125742 56 212 2.6 5.2 0.00 0.00 0.00 87 1013.3
20260831125238 55 191 2.6 4.3 0.00 0.00 0.00 88 1013.5
20260831124732 55 218 3.5 4.3 0.00 0.00 0.00 89 1013.4
20260831124229 54 196 1.7 1.7 0.00 0.00 0.00 90 1013.5
20260831123729 54 179 0.9 1.7 0.00 0.00 0.00 90 1013.4
20260831123227 53 200 0.9 0.9 0.00 0.00 0.00 91 1013.2
20260831122722 53 136 0.0 0.9 0.00 0.00 0.00 91 1013.4
20260831122218 52 166 0.9 0.9 0.00 0.00 0.00 91 1013.3
20260831121717 53 114 0.0 0.0 0.00 0.00 0.00 91 1013.3
20260831121214 53 190 1.7 1.7 0.00 0.00 0.00 91 1013.4
20260831120709 53 197 0.9 0.9 0.00 0.00 0.00 91 1013.2
20260831120203 53 273 1.7 1.7 0.00 0.00 0.00 92 1013.0
20260831115659 52 69 0.0 0.0 0.00 0.00 0.00 92 1013.1
20260831115155 52 74 0.0 0.9 0.00 0.00 0.00 92 1012.9
20260831114654 52 93 0.0 0.0 0.00 0.00 0.00 92 1013.0
20260831114148 52 162 0.0 0.0 0.00 0.00 0.00 92 1013.0
20260831113643 52 214 0.9 1.7 0.00 0.00 0.00 92 1012.7
20260831113138 52 205 1.7 2.6 0.00 0.00 0.00 92 1012.6
20260831112637 52 206 0.9 1.7 0.00 0.00 0.00 92 1012.6
20260831112132 52 215 1.7 1.7 0.00 0.00 0.00 92 1012.7
20260831111628 52 158 0.9 0.9 0.00 0.00 0.00 92 1012.6
20260831111123 52 202 2.6 2.6 0.00 0.00 0.00 92 1012.7
20260831110618 52 221 1.7 1.7 0.00 0.00 0.00 92 1012.6
20260831110109 52 180 1.7 1.7 0.00 0.00 0.00 92 1012.6
20260831105607 52 203 1.7 1.7 0.00 0.00 0.00 92 1012.5
20260831105102 52 191 1.7 1.7 0.00 0.00 0.00 92 1012.5
20260831104557 52 162 1.7 1.7 0.00 0.00 0.00 92 1012.3
20260831104048 52 181 1.7 1.7 0.00 0.00 0.00 92 1012.6
20260831103543 52 188 1.7 1.7 0.00 0.00 0.00 92 1012.3
20260831103039 52 188 2.6 4.3 0.00 0.00 0.00 92 1012.2
20260831102533 52 197 1.7 1.7 0.00 0.00 0.00 92 1012.0
20260831102028 52 211 1.7 1.7 0.00 0.00 0.00 92 1012.2
20260831101523 52 158 0.0 0.0 0.00 0.00 0.00 92 1011.9
20260831101020 52 196 0.9 1.7 0.00 0.00 0.00 92 1011.9
20260831100515 52 230 0.9 1.7 0.00 0.00 0.00 92 1011.9
20260831100011 52 183 2.6 2.6 0.00 0.00 0.00 92 1011.8
20260831095509 52 190 0.0 0.0 0.00 0.00 0.00 92 1011.7
20260831095004 52 168 0.0 0.0 0.00 0.00 0.00 92 1012.0
20260831094500 52 158 0.0 0.9 0.00 0.00 0.00 91 1012.0
20260831093956 52 211 1.7 1.7 0.00 0.00 0.00 91 1011.8
20260831093450 52 187 0.9 0.9 0.00 0.00 0.00 92 1011.6
20260831092947 52 171 0.9 0.9 0.00 0.00 0.00 92 1011.8
20260831092442 52 169 0.0 0.0 0.00 0.00 0.00 92 1011.7
20260831091937 52 171 0.0 0.0 0.00 0.00 0.00 92 1011.7
20260831091433 52 186 0.9 0.9 0.00 0.00 0.00 92 1011.5
20260831090927 53 165 0.0 0.0 0.00 0.00 0.00 92 1011.5
20260831090424 53 219 1.7 1.7 0.00 0.00 0.00 92 1011.6
20260831085920 52 204 0.0 0.0 0.00 0.00 0.00 92 1011.5
20260831085414 52 183 0.0 0.0 0.00 0.00 0.00 92 1011.7
20260831084914 52 138 0.0 0.0 0.00 0.00 0.00 92 1011.7
20260831084410 53 185 0.9 0.9 0.00 0.00 0.00 92 1011.6
20260831083906 53 220 0.9 0.9 0.00 0.00 0.00 92 1011.7
20260831083401 53 201 0.0 0.9 0.00 0.00 0.00 92 1011.5
20260831082900 53 186 0.9 1.7 0.00 0.00 0.00 92 1011.7
20260831082400 53 191 0.9 0.9 0.00 0.00 0.00 92 1011.7
20260831081856 52 160 0.0 0.0 0.00 0.00 0.00 92 1011.6
20260831081351 52 135 0.0 0.0 0.00 0.00 0.00 92 1011.7
20260831080847 52 189 0.0 0.0 0.00 0.00 0.00 92 1011.5
20260831080343 53 134 0.0 0.0 0.00 0.00 0.00 92 1011.5
20260831075838 52 131 0.0 0.0 0.00 0.00 0.00 92 1011.3
20260831075332 52 109 0.0 0.0 0.00 0.00 0.00 92 1011.5
20260831074828 52 86 0.0 0.0 0.00 0.00 0.00 92 1011.5
20260831074327 53 85 0.0 0.0 0.00 0.00 0.00 92 1011.3
20260831073822 53 91 0.0 0.0 0.00 0.00 0.00 93 1011.1
20260831073316 53 64 0.0 0.0 0.00 0.00 0.00 92 1011.2
20260831072811 53 35 0.0 0.0 0.00 0.00 0.00 92 1011.4
20260831072307 53 35 0.0 0.0 0.00 0.00 0.00 92 1011.3
20260831071803 53 35 0.0 0.0 0.00 0.00 0.00 92 1011.3
20260831071256 53 339 0.0 0.0 0.00 0.00 0.00 92 1011.4
20260831070751 53 339 0.0 0.0 0.00 0.00 0.00 92 1011.4
20260831070250 54 339 0.0 0.0 0.00 0.00 0.00 92 1011.3
20260831065749 54 339 0.0 0.0 0.00 0.00 0.00 92 1011.3
20260831065247 54 339 0.0 0.0 0.00 0.00 0.00 92 1011.5
20260831064743 54 339 0.0 0.0 0.00 0.00 0.00 92 1011.5
20260831064237 54 337 0.0 0.0 0.00 0.00 0.00 92 1011.6
20260831063734 54 189 0.0 0.0 0.00 0.00 0.00 92 1011.3
20260831063228 54 335 0.0 0.0 0.00 0.00 0.00 91 1011.4
20260831062728 55 330 0.0 0.9 0.00 0.00 0.00 91 1011.8
20260831062223 55 192 1.7 1.7 0.00 0.00 0.00 91 1011.7
20260831061721 55 176 0.9 1.7 0.00 0.00 0.00 91 1011.9
20260831061217 55 238 0.9 1.7 0.00 0.00 0.00 91 1011.7
20260831060713 55 234 1.7 1.7 0.00 0.00 0.00 91 1011.6
20260831060212 56 206 0.0 0.0 0.00 0.00 0.00 91 1011.7
20260831055707 56 196 0.0 0.0 0.00 0.00 0.00 90 1011.2
20260831055201 56 211 2.6 2.6 0.00 0.00 0.00 90 1011.4
20260831054656 57 244 1.7 1.7 0.00 0.00 0.00 90 1011.2
20260831054156 57 214 3.5 4.3 0.00 0.00 0.00 90 1011.3
20260831053650 57 239 2.6 2.6 0.00 0.00 0.00 90 1011.3
20260831053149 57 276 2.6 2.6 0.00 0.00 0.00 90 1011.2
20260831052648 57 223 2.6 2.6 0.00 0.00 0.00 90 1011.1
20260831052147 57 258 1.7 1.7 0.00 0.00 0.00 90 1011.1
20260831051645 57 241 3.5 5.2 0.00 0.00 0.00 90 1010.9
20260831051144 57 259 2.6 2.6 0.00 0.00 0.00 91 1010.9
20260831050639 57 199 2.6 2.6 0.00 0.00 0.00 91 1010.7
20260831050133 57 251 2.6 2.6 0.00 0.00 0.00 91 1010.7
20260831045633 57 288 1.7 1.7 0.00 1.07 1.07 91 1010.6
20260831045128 57 295 1.7 1.7 0.00 1.07 1.07 91 1010.6
20260831044623 57 285 2.6 2.6 0.00 1.07 1.07 91 1010.6
20260831044118 57 189 0.9 1.7 0.00 1.07 1.07 91 1010.6
20260831043613 57 213 0.9 0.9 0.00 1.07 1.07 91 1010.4
20260831043103 58 145 0.0 0.9 0.00 1.07 1.07 91 1010.6
20260831042602 58 256 0.9 0.9 0.00 1.07 1.07 91 1010.5
20260831042057 58 176 0.9 0.9 0.00 1.07 1.07 91 1010.3
20260831041552 58 191 0.9 0.9 0.00 1.07 1.07 90 1010.4
20260831041051 59 257 1.7 1.7 0.00 1.07 1.07 90 1010.4
20260831040546 59 235 1.7 1.7 0.00 1.07 1.07 90 1010.4
20260831040045 59 317 0.0 0.0 0.00 1.07 1.07 89 1010.2
20260831035543 59 316 0.9 0.9 0.00 1.07 1.07 89 1010.3
20260831035039 59 267 0.9 1.7 0.00 1.07 1.07 89 1010.4
20260831034533 60 294 0.9 0.9 0.00 1.07 1.07 88 1010.4
20260831034028 60 295 1.7 1.7 0.00 1.07 1.07 88 1010.3
20260831033524 60 290 0.9 1.7 0.00 1.07 1.07 88 1010.6
20260831033019 61 194 0.9 1.7 0.00 1.07 1.07 87 1010.8
20260831032518 61 240 2.6 2.6 0.00 1.07 1.07 87 1010.7
20260831032014 61 228 3.5 4.3 0.00 1.07 1.07 87 1010.9
20260831031514 61 219 2.6 2.6 0.00 1.07 1.07 87 1010.6
20260831031013 62 227 2.6 2.6 0.00 1.07 1.07 85 1010.4
20260831030512 62 286 3.5 4.3 0.00 1.07 1.07 83 1009.9
20260831030011 62 297 4.3 5.2 0.00 1.07 1.07 83 1009.9
20260831025504 61 340 1.7 1.7 0.00 1.07 1.07 86 1010.0
20260831024959 61 166 0.0 0.0 0.00 1.07 1.07 86 1009.7
20260831024454 61 283 0.9 0.9 0.00 1.07 1.07 85 1009.8
20260831023948 61 53 0.0 0.9 0.00 1.07 1.07 85 1010.0
20260831023446 62 42 0.9 0.9 0.00 1.07 1.07 84 1009.6
20260831022942 62 39 0.9 1.7 0.00 1.07 1.07 82 1009.6
20260831022440 62 25 2.6 2.6 0.00 1.07 1.07 83 1009.8
20260831021935 62 38 1.7 2.6 0.00 1.07 1.07 82 1009.7
20260831021435 62 320 3.5 4.3 0.00 1.07 1.07 81 1009.7
20260831020931 62 311 3.5 4.3 0.00 1.07 1.07 83 1009.9
20260831020430 62 359 4.3 6.1 0.00 1.07 1.07 83 1009.3
20260831015925 61 322 4.3 6.1 0.00 1.07 1.07 84 1009.5
20260831015421 61 279 7.8 9.6 0.00 1.07 1.07 85 1010.0
20260831014917 61 261 7.8 12.2 0.00 1.07 1.07 85 1010.0
20260831014416 62 317 9.6 13.0 0.00 1.07 1.07 85 1010.2
20260831013912 61 0 9.6 13.9 0.00 1.07 1.07 88 1010.2
20260831013408 61 308 7.8 9.6 0.00 1.07 1.07 89 1010.3
20260831012902 62 317 9.6 13.9 0.00 1.07 1.07 90 1010.3
20260831012357 62 273 9.6 13.0 0.05 1.07 1.07 90 1010.2
20260831011852 62 299 13.0 14.8 0.05 1.07 1.07 91 1010.1
20260831011346 62 308 7.8 9.6 0.00 1.06 1.06 92 1009.9
20260831010837 62 295 9.6 11.3 0.14 1.06 1.06 93 1010.3
20260831010336 62 300 8.7 12.2 0.19 1.06 1.06 93 1010.6